Hourly Data Report for March 05, 2017

MIRAMICHI RCS
NEW BRUNSWICK

47°00'34.000" N
65°27'54.000" W
33.00 m
8100989
71744
ACQ

Download Data

Hourly Data (March 2017)
Hourly Data Report for March 5, 2017
TIME
LST
Temp Definition
°C
Dew Point Definition
°C
Rel Hum Definition
%
Precip. Amount Definition
mm

Wind Dir Definition
10's deg

Wind Spd Definition
km/h
Visibility Definition
km
Stn Press Definition
kPa
Hmdx Definition


Wind Chill Definition


Weather Definition


00:00 -13.3 -19.4 60 0.0 32 21   100.94   -22 LegendNANA
01:00 -13.4 -20.6 55 0.0 32 22   100.99   -23 LegendNANA
02:00 -13.9 -20.3 58 0.0 31 17   101.04   -22 LegendNANA
03:00 -14.1 -20.1 61 0.0 31 16   101.07   -22 LegendNANA
04:00 -14.1 -19.7 63 0.0 31 18   101.11   -23 LegendNANA
05:00 -14.0 -18.2 70 0.0 31 18   101.18   -22 LegendNANA
06:00 -13.8 -17.3 75 0.0 31 14   101.25   -21 LegendNANA
07:00 -13.5 -19.3 62 0.0 31 19   101.33   -22 LegendNANA
08:00 -12.8 -20.7 52 0.0 31 20   101.42   -21 LegendNANA
09:00 -12.2 -20.9 48 0.0 32 25   101.51   -22 LegendNANA
10:00 -11.7 -21.2 45 0.0 32 22   101.58   -20 LegendNANA
11:00 -9.4 -20.9 39 0.0 32 16   101.64   -16 LegendNANA
12:00 -7.3 -20.3 35 0.0 33 19   101.60   -14 LegendNANA
13:00 -5.9 -19.6 33 0.0 31 23   101.60   -13 LegendNANA
14:00 -5.1 -18.9 33 0.0 32 20   101.59   -12 LegendNANA
15:00 -5.2 -18.8 34 0.0 31 22   101.59   -12 LegendNANA
16:00 -5.7 -19.0 34 0.0 33 16   101.64   -12 LegendNANA
17:00 -6.4 -19.4 35 0.0 31 21   101.68   -13 LegendNANA
18:00 -7.2 -18.0 42 0.0 31 15   101.74   -13 LegendNANA
19:00 -8.5 -17.3 49 0.0 30 16   101.79   -15 LegendNANA
20:00 -9.3 -18.2 49 0.0 30 20   101.81   -17 LegendNANA
21:00 -9.9 -18.8 48 0.0 31 17   101.88   -17 LegendNANA
22:00 -10.1 -18.8 49 0.0 31 14   101.92   -17 LegendNANA
23:00 -10.3 -18.7 50 0.0 31 13   101.91   -17 LegendNANA

Notes on Data Quality.

Legend

  • E = Estimated
  • M = Missing
  • NA = Not Available*
  • [empty] = Indicates an unobserved value
Date modified: